Regional Weather Roundup
Issued by NWS

Home | Current Version | Previous Version | Text Only | Print | Product List | Glossary On
Versions: 1 2 3 4 5 6 7 8 9 10 11 12 13 14 15 16 17 18 19 20 21 22 23 24 25 26 27 28 29 30 31 32 33 34 35 36 37 38 39 40 41 42 43 44 45 46 47 48 49 50
000
ASUS44 KBMX 281410
RWRAL

ALABAMA REGIONAL WEATHER ROUNDUP
NATIONAL WEATHER SERVICE BIRMINGHAM AL
800 AM CST WED JAN 28 2015

NOTE: "FAIR" INDICATES FEW OR NO CLOUDS BELOW 12,000 FEET
WITH NO SIGNIFICANT WEATHER AND/OR OBSTRUCTIONS TO VISIBILITY.

THE REMARK "TC" DENOTES TEMPERATURE IN DEGREES CELSIUS.

ALZ001>011-014-016>018-020-281500-
NORTH ALABAMA

CITY           SKY/WX    TMP DP  RH WIND       PRES   REMARKS
MUSCLE SHOALS  SUNNY     34  27  75 NE3       30.33R
HUNTSVILLE     MOSUNNY   36  26  67 NE6       30.30R WCI  31
DECATUR        SUNNY     34  26  72 NE7       30.31R WCI  28
HALEYVILLE       N/A     30  27  89 CALM      30.32R
GADSDEN        SUNNY     36  27  69 NE9       30.30R WCI  29
$$

ALZ012-013-022-023-030>036-040>044-281500-
WEST CENTRAL ALABAMA

CITY           SKY/WX    TMP DP  RH WIND       PRES   REMARKS
TUSCALOOSA     SUNNY     35  30  82 NE3       30.32R
$$

ALZ015-024>027-033>036-040>044-281500-
CENTRAL ALABAMA

CITY           SKY/WX    TMP DP  RH WIND       PRES   REMARKS
BIRMINGHAM     SUNNY     32  28  85 CALM      30.32R
MONTGOMERY     SUNNY     38  30  73 N6        30.31R WCI  33
SHELBY CO ARPT SUNNY     37  30  75 CALM      30.29R
MAXWELL AFB    SUNNY     37  32  82 N2        30.30R
GREENVILLE     FAIR      37  30  75 N6        30.27R WCI  32
$$

ALZ019-021-028-029-037-038-045>048-281500-
EAST CENTRAL ALABAMA

CITY           SKY/WX    TMP DP  RH WIND       PRES   REMARKS
ANNISTON       SUNNY     35  28  75 E6        30.29R WCI  30
ALEXANDER CITY SUNNY     37  28  70 N6        30.26R WCI  32
AUBURN         SUNNY     34  25  69 NE12G17   30.27R WCI  25
$$

ALZ051>064-281500-
SOUTHWEST ALABAMA

CITY           SKY/WX    TMP DP  RH WIND       PRES   REMARKS
MOBILE         SUNNY     43  34  70 NE8       30.29R
BROOKLEY FIELD SUNNY     46  35  65 N9        30.31R
EVERGREEN      SUNNY     39  33  79 N5        30.29R
$$

ALZ049-050-065>069-281500-
SOUTHEAST ALABAMA

CITY           SKY/WX    TMP DP  RH WIND       PRES   REMARKS
DOTHAN         SUNNY     37  31  78 N6        30.30R WCI  32
OZARK          SUNNY     38  30  72 N8        30.28R WCI  33
TROY           SUNNY     35  32  88 CALM      30.29R
EUFAULA        FAIR      38  30  73 VRB5      30.26R WCI  34
$$


USA.gov is the U.S. government's official web portal to all federal, state and local government web resources and services.